Powrót do katalogu

CZ-3C DEB

LostGTO
NORAD 40859·DEBRIS·🇨🇳 China

Wystrzelony Feb 24, 2012 z Xichang Satellite Launch Center

Loading…

TLE

NieaktualneSource: Space-Track

Epoka: Nov 30, 2021, 18:26 UTC

1 40859U 12008Z   21334.76868353  .00000044  00000-0  62459-3 0  9993
2 40859  21.6291 232.3611 7239620 220.2554  53.8528  2.20922212 56325

Śledź CZ-3C DEB w czasie rzeczywistym z AllMySat

Download on the App Store